Showing default

LEMUR 2 HUBBLE-5, 64840

Orbit data source: Space-Track

LEMUR 2 HUBBLE-5, 64840 is an American payload satellite in SSO that was launched on Mon, 23 Jun 2025 UTC via an FALCON 9 launch vehicle from the Air Force Western Test Range (AFWTR). Payload-class satellites include a variety of spacecraft equipped with specific instruments for various scientific and technological missions. These include communications satellites like Starlink; space stations such as the ISS; scientific satellites like the Hubble; Earth observation satellites from companies like Planet Labs, Umbra, and HawkEye 360; GPS; miniature CubeSats for education and research; and military/defense satellites.

Loading next visibility...
Identifier
64840, 2025-135BT
Orbit
SSO
Country
Flag of USUS
Related business
Manufacturer
Spire/Glasgow
Mission
Operational Commercial Communications
Bus & Motor
CUBESAT 16U, Unknown motor
Mass
22 kg wet, 22 kg dry
Launch date (UTC)
2025-06-23 (11 months ago)
Launch vehicle
FALCON 9
Launch site
Air Force Western Test Range (AFWTR)
Object type
Payload
Rocket body
Debris
Shape & HBR
Box + 4 Pan, 1.4 m
Radar Cross Section
0.326 m², Medium (>0.1 m² and < 1m²)

Expand to show TLE details & history
Last TLE update: 12 hours ago

TLE from 12 hours ago
0 LEMUR 2 HUBBLE-5
1 64840U 25135BT  26133.06393873  .00001289  00000-0  12619-3 0  9994
2 64840  97.7676 247.9834 0007093  96.4971 263.7056 14.94025677 48666
Epoch: 2026-05-13T01:32Z
TLE epoch observation values (Epoch: 2026-05-13T01:32:04.306Z)
Latitude
-0.00008°
Longitude
-5.86386°
Altitude
588.988 km
Speed
7.565 km/s
True Right ascension
16h 31m 56s
True Declination
0° 00' 00"
Sunlit
Object was in full shadow at epoch
Visualization orbit readout
Latitude
Unknown
Longitude
Unknown
Altitude
Unknown
Speed
Unknown
Apparent Right ascension
Unknown
Apparent Declination
Unknown
Sunlit
N/A
Visualization observer readout
Local Sidereal Time
22:05:15
Azimuth
Unknown
Elevation
Unknown
Doppler factor
Unknown
Orbital elements
Apogee altitude
587.352 km
Perigee altitude
577.478 km
Semi-major axis
6,960.552 km
Eccentricity
0.00071
Inclination
97.7676°
RAAN
247.9834°
Arg. of periapsis
96.4971°
True anomaly
263.62482°
Mean anomaly
263.7056°
Eccentric anomaly
263.66521°
Mean motion
3.73747 °/min
Orbital period
96.32 mins
BSTAR
0.00012619
Loading maneuver chart data...
Computing Atmospheric mass density...
Loading historical data...
Loading historical data...
Loading historical data...
Loading historical data...
Loading historical data...
Loading historical data...
Loading historical data...

Documentation

Showing up to 5 results
|